Home   Weather   Randaberg   Past weeks

Flag for Norway Past Weather in Randaberg, Norway — Yesterday and Last 2 Weeks

Now
44 °F

Overcast.


Feels Like: 43 °F
Forecast: 37 / 41 °F
Wind: 3 mph from West

Location: Stavanger / Sola

Current Time: Jan 20, 2017 at 5:08:51 am

Latest Report: Jan 20, 2017 at 4:00 am


Visibility: 6 mi

Pressure: 30.47 "Hg

Humidity: 94%

Dew Point: 43 °F

Location of RandabergLocation

Past Weather in Randaberg — Graph

°F

Randaberg Temperature Yesterday

Maximum temperature yesterday: 45 °F (at 1:00 pm)
Minimum temperature yesterday: 44 °F (at 12:00 am)
Average temperature yesterday: 44 °F

High & Low Weather Summary for the Past Weeks

 TemperatureHumidityPressure
High45 °F (Jan 19, 1:00 pm)100% (Jan 18, 3:00 am)30.64 "Hg (Jan 18, 3:00 am)
Low15 °F (Jan 16, 4:00 am)52% (Jan 5, 8:00 pm)28.53 "Hg (Jan 11, 9:00 am)
Average36 °F85%29.95 "Hg
* Reported Jan 5 3:00 am — Jan 20 3:00 am, Randaberg, Weather by CustomWeather, © 2017

Note: Actual official high and low records may vary slightly from our data, if they occured in-between our weather recording intervals... More about our weather records

Advertising

Randaberg Weather History for the Previous 24 Hours

Scroll right to see more
 ConditionsComfort  
Time TempWeatherWind HumidityBarometerVisibility
3:00 am
Fri, Jan 20
44 °FOvercast.3 mph96%30.47 "Hg6 mi
2:00 am44 °FPassing clouds.3 mph95%30.48 "Hg7 mi
1:00 am44 °FPassing clouds.3 mph96%30.49 "Hg6 mi
12:00 am44 °FOvercast.5 mph96%30.49 "Hg6 mi
11:00 pm
Thu, Jan 19
45 °FSprinkles. Overcast.5 mph94%30.49 "Hg3 mi
10:00 pm45 °FOvercast.5 mph92%30.48 "Hg9 mi
9:00 pm45 °FOvercast.3 mph92%30.48 "Hg8 mi
8:00 pm45 °FOvercast.3 mph92%30.47 "Hg7 mi
7:00 pm45 °FOvercast.5 mph93%30.47 "Hg6 mi
6:00 pm44 °FPassing clouds.6 mph95%30.46 "Hg5 mi
5:00 pm44 °FOvercast.5 mph96%30.45 "Hg2 mi
4:00 pm44 °FRain showers. Fog.3 mph96%30.46 "Hg3 mi
3:00 pm44 °FDrizzle. Dense fog.2 mph96%30.46 "Hg2 mi
2:00 pm45 °FOvercast.2 mph91%30.47 "Hg11 mi
1:00 pm45 °FLow clouds.6 mph93%30.47 "Hg8 mi
12:00 pm45 °FOvercast.3 mph95%30.47 "Hg7 mi
11:00 am44 °FLow clouds.3 mph97%30.46 "Hg6 mi
10:00 am44 °FDrizzle. Overcast.5 mph96%30.45 "Hg1 mi
9:00 am44 °FOvercast.5 mph97%30.44 "Hg5 mi
8:00 am45 °FOvercast.3 mph97%30.44 "Hg3 mi
7:00 am44 °FOvercast.5 mph98%30.44 "Hg6 mi
6:00 am44 °FDrizzle. Low clouds.6 mph97%30.45 "Hg2 mi
5:00 am44 °FLow clouds.5 mph95%30.45 "Hg3 mi
Weather by CustomWeather, © 2017

See weather overviewHow to use our weather pages